K5HAS Weather Reports


Display with metric or nautical units.
time (UTC)temp
F
wind
direction
speed
MPH
gust
MPH
rain 1hr
in
rain 24hr
in
rain mn
in
humidity
%
barometer
mb
20260906131700 81 90 1.0 4.0 0.00 0.00 0.00 89 1011.4
20260906131155 80 95 2.0 3.0 0.00 0.00 0.00 89 1011.3
20260906130644 79 121 2.0 4.0 0.00 0.00 0.00 90 1011.3
20260906130357 78 122 2.0 4.0 0.00 0.00 0.00 90 1011.3
20260906125631 78 127 1.0 3.0 0.00 0.00 0.00 91 1011.2
20260906125132 77 128 0.0 2.0 0.00 0.00 0.00 92 1011.2
20260906124631 77 138 0.0 0.0 0.00 0.00 0.00 92 1011.2
20260906124128 77 138 0.0 0.0 0.00 0.00 0.00 91 1010.9
20260906123625 77 138 0.0 0.0 0.00 0.00 0.00 92 1010.9
20260906123125 76 138 0.0 0.0 0.00 0.00 0.00 91 1010.9
20260906122626 77 138 0.0 0.0 0.00 0.00 0.00 91 1010.7
20260906122123 77 138 0.0 0.0 0.00 0.00 0.00 92 1010.7
20260906121119 77 138 0.0 0.0 0.00 0.00 0.00 90 1010.5
20260906120620 77 138 0.0 0.0 0.00 0.00 0.00 91 1010.5
20260906120119 77 138 0.0 1.0 0.00 0.00 0.00 91 1010.5
20260906115618 77 138 0.0 1.0 0.00 0.00 0.00 91 1010.3
20260906114619 77 138 1.0 2.0 0.00 0.00 0.00 91 1010.3
20260906114116 77 138 0.0 2.0 0.00 0.00 0.00 91 1009.9
20260906113615 77 138 0.0 2.0 0.00 0.00 0.00 91 1009.9
20260906113115 77 138 1.0 3.0 0.00 0.00 0.00 90 1009.9
20260906112615 77 144 0.0 3.0 0.00 0.00 0.00 90 1009.7
20260906111614 77 145 2.0 3.0 0.00 0.00 0.00 90 1009.7
20260906111334 78 145 2.0 3.0 0.00 0.00 0.00 90 1009.5
20260906110047 78 157 0.0 2.0 0.00 0.00 0.00 90 1009.5
20260906105549 78 155 1.0 3.0 0.00 0.00 0.00 90 1009.7
20260906105311 78 155 2.0 3.0 0.00 0.00 0.00 91 1009.7
20260906104810 78 157 2.0 3.0 0.00 0.00 0.00 91 1009.7
20260906104041 78 165 2.0 3.0 0.00 0.00 0.00 91 1009.7
20260906103542 78 165 1.0 2.0 0.00 0.00 0.00 92 1009.7
20260906102806 77 165 1.0 2.0 0.00 0.00 0.00 90 1009.5
20260906102037 77 165 1.0 3.0 0.00 0.00 0.00 90 1009.5
20260906101535 77 165 2.0 3.0 0.00 0.00 0.00 90 1009.5
20260906101259 78 172 2.0 3.0 0.00 0.00 0.00 90 1009.3
20260906100531 78 172 1.0 2.0 0.00 0.00 0.00 90 1009.3
20260906100026 78 172 0.0 1.0 0.00 0.00 0.00 89 1009.3
20260906095516 78 172 0.0 2.0 0.00 0.00 0.00 90 1009.3
20260906094459 78 172 0.0 2.0 0.00 0.00 0.00 89 1009.3
20260906093954 79 172 0.0 1.0 0.00 0.00 0.00 89 1009.4
20260906093448 79 172 1.0 3.0 0.00 0.00 0.00 89 1009.4
20260906092934 79 172 2.0 3.0 0.00 0.00 0.00 89 1009.4
20260906092428 79 172 2.0 4.0 0.00 0.00 0.00 88 1009.4
20260906091918 80 176 2.0 4.0 0.00 0.00 0.00 90 1009.4
20260906091412 80 177 1.0 4.0 0.00 0.00 0.00 89 1009.4
20260906091118 80 178 1.0 4.0 0.00 0.00 0.00 89 1009.4
20260906090348 80 176 1.0 3.0 0.00 0.00 0.00 89 1009.4
20260906085335 80 174 1.0 5.0 0.00 0.00 0.00 89 1009.5
20260906085052 80 174 2.0 5.0 0.00 0.00 0.00 89 1009.5
20260906084315 80 174 2.0 5.0 0.00 0.00 0.00 89 1009.5
20260906084036 80 178 1.0 5.0 0.00 0.00 0.00 89 1009.5
20260906083307 80 90 1.0 5.0 0.00 0.00 0.00 89 1009.5
20260906082753 81 171 2.0 5.0 0.00 0.00 0.00 88 1009.7
20260906082503 81 172 2.0 3.0 0.00 0.00 0.00 88 1009.7
20260906081737 81 171 1.0 3.0 0.00 0.00 0.00 88 1009.7
20260906081231 82 184 1.0 3.0 0.00 0.00 0.00 88 1009.7
20260906080717 82 187 2.0 9.0 0.00 0.00 0.00 87 1009.7
20260906080205 82 189 2.0 9.0 0.00 0.00 0.00 87 1009.7
20260906075703 83 190 3.0 9.0 0.00 0.00 0.00 87 1009.8
20260906075204 83 199 3.0 9.0 0.00 0.00 0.00 87 1009.8
20260906074929 83 194 3.0 9.0 0.00 0.00 0.00 87 1009.8
20260906074203 83 180 3.0 9.0 0.00 0.00 0.00 88 1010.0
20260906073702 83 199 2.0 8.0 0.00 0.00 0.00 88 1010.0
20260906073204 82 203 3.0 8.0 0.00 0.00 0.00 88 1010.0
20260906072701 82 210 3.0 8.0 0.00 0.00 0.00 88 1010.3
20260906072159 82 208 2.0 8.0 0.00 0.00 0.00 89 1010.3
20260906071659 82 195 1.0 7.0 0.00 0.00 0.00 88 1010.3
20260906071157 82 193 1.0 7.0 0.00 0.00 0.00 88 1010.3
20260906070157 82 196 2.0 7.0 0.00 0.00 0.00 89 1010.3
20260906065919 82 191 2.0 6.0 0.00 0.00 0.00 89 1010.3
20260906065158 82 193 2.0 5.0 0.00 0.00 0.00 89 1010.3
20260906064927 82 190 2.0 5.0 0.00 0.00 0.00 89 1010.3
20260906064155 82 213 3.0 7.0 0.00 0.00 0.00 89 1010.3
20260906063652 81 203 3.0 7.0 0.00 0.00 0.00 89 1010.3
20260906062652 81 188 2.0 7.0 0.00 0.00 0.00 89 1010.4
20260906062153 81 193 2.0 7.0 0.00 0.00 0.00 89 1010.4
20260906061651 81 190 2.0 7.0 0.00 0.00 0.00 89 1010.4
20260906061149 81 188 2.0 6.0 0.00 0.00 0.00 89 1010.5
20260906060648 81 193 2.0 5.0 0.00 0.00 0.00 89 1010.5
20260906060147 80 181 2.0 6.0 0.00 0.00 0.00 89 1010.5
20260906055646 80 173 3.0 7.0 0.00 0.00 0.00 89 1010.3
20260906055146 80 184 3.0 7.0 0.00 0.00 0.00 89 1010.3
20260906054646 80 173 2.0 7.0 0.00 0.00 0.00 89 1010.3
20260906054137 80 90 2.0 5.0 0.00 0.00 0.00 89 1010.3
20260906053631 80 178 2.0 5.0 0.00 0.00 0.00 89 1010.3
20260906053121 80 174 1.0 3.0 0.00 0.00 0.00 89 1010.3
20260906052617 80 159 1.0 3.0 0.00 0.00 0.00 89 1010.8
20260906052110 80 157 1.0 3.0 0.00 0.00 0.00 89 1010.8
20260906051614 80 157 3.0 5.0 0.00 0.00 0.00 89 1010.8
20260906051115 80 157 3.0 5.0 0.00 0.00 0.00 89 1010.8
20260906050613 80 157 3.0 5.0 0.00 0.00 0.00 89 1010.8
20260906050110 80 157 3.0 5.0 0.00 0.00 0.00 89 1010.8
20260906045836 80 156 3.0 6.0 0.00 0.00 0.00 89 1010.8
20260906045110 80 157 3.0 6.0 0.00 0.00 0.00 89 1010.8
20260906044612 80 157 4.0 8.0 0.00 0.00 0.00 89 1010.8
20260906044332 79 160 5.0 8.0 0.00 0.00 0.00 89 1010.8
20260906043611 79 155 5.0 7.0 0.00 0.00 0.00 89 1010.8
20260906043105 79 161 4.0 7.0 0.00 0.00 0.00 88 1010.8
20260906042612 80 161 4.0 5.0 0.00 0.00 0.00 88 1010.8
20260906042105 80 159 3.0 5.0 0.00 0.00 0.00 88 1010.8
20260906041610 80 150 2.0 5.0 0.00 0.00 0.00 88 1010.8
20260906041102 80 139 2.0 4.0 0.00 0.00 0.00 88 1010.8
20260906040829 80 139 2.0 3.0 0.00 0.00 0.00 88 1010.8
20260906035611 81 139 2.0 3.0 0.00 0.00 0.00 87 1010.7
20260906035057 81 139 2.0 3.0 0.00 0.00 0.00 87 1010.7
20260906034548 81 139 2.0 3.0 0.00 0.00 0.00 87 1010.7
20260906034302 81 139 2.0 3.0 0.00 0.00 0.00 87 1010.8
20260906033757 81 139 2.0 4.0 0.00 0.00 0.00 87 1010.8
20260906033247 81 139 2.0 4.0 0.00 0.00 0.00 87 1010.8
20260906032517 81 141 3.0 5.0 0.00 0.00 0.00 87 1010.7
20260906032005 81 147 3.0 5.0 0.00 0.00 0.00 87 1010.7
20260906031452 81 148 3.0 5.0 0.00 0.00 0.00 87 1010.7
20260906030941 81 132 3.0 5.0 0.00 0.00 0.00 87 1010.3
20260906030432 82 151 3.0 8.0 0.00 0.00 0.00 86 1010.3
20260906025641 82 165 4.0 8.0 0.00 0.00 0.00 86 1010.2
20260906024909 82 157 5.0 9.0 0.00 0.00 0.00 86 1010.2
20260906024408 82 153 4.0 9.0 0.00 0.00 0.00 86 1009.8
20260906023908 82 134 4.0 8.0 0.00 0.00 0.00 85 1009.8
20260906023408 82 126 4.0 8.0 0.00 0.00 0.00 85 1009.8
20260906022908 82 145 4.0 8.0 0.00 0.00 0.00 85 1009.5
20260906022637 82 166 4.0 8.0 0.00 0.00 0.00 85 1009.5
20260906021904 82 141 5.0 9.0 0.00 0.00 0.00 85 1009.5
20260906021404 82 147 5.0 9.0 0.00 0.00 0.00 85 1009.3
20260906020909 82 166 5.0 9.0 0.00 0.00 0.00 84 1009.3
20260906020404 83 161 4.0 9.0 0.00 0.00 0.00 84 1009.3
20260906015905 83 144 4.0 7.0 0.00 0.00 0.00 83 1009.3
20260906015406 83 156 4.0 9.0 0.00 0.00 0.00 82 1009.3
20260906015122 84 149 4.0 9.0 0.00 0.00 0.00 82 1009.3
20260906014358 84 128 4.0 9.0 0.00 0.00 0.00 81 1009.2
20260906013901 84 147 4.0 9.0 0.00 0.00 0.00 81 1009.2
20260906013333 84 133 5.0 8.0 0.00 0.00 0.00 80 1009.2
20260906012824 85 143 6.0 9.0 0.00 0.00 0.00 80 1009.2
20260906012317 85 144 5.0 9.0 0.00 0.00 0.00 80 1009.2
20260906011814 85 122 5.0 11.0 0.00 0.00 0.00 80 1009.2
20260906011532 85 133 6.0 11.0 0.00 0.00 0.00 80 1009.3
20260906010813 85 124 7.0 11.0 0.00 0.00 0.00 80 1009.3
20260906010312 85 134 7.0 11.0 0.00 0.00 0.00 80 1009.3
20260906005537 86 138 7.0 14.0 0.00 0.00 0.00 79 1009.7
20260906004813 86 109 7.0 14.0 0.00 0.00 0.00 79 1009.7
20260906004312 86 134 7.0 14.0 0.00 0.00 0.00 79 1009.3
20260906003812 86 139 7.0 16.0 0.00 0.00 0.00 79 1009.3
20260906003312 86 144 8.0 16.0 0.00 0.00 0.00 79 1009.3
20260906002813 87 128 9.0 16.0 0.00 0.00 0.00 78 1009.3
20260906002312 87 149 10.0 17.0 0.00 0.00 0.00 77 1009.3
20260906001812 87 139 9.0 17.0 0.00 0.00 0.00 77 1009.3
20260906001314 87 153 8.0 16.0 0.00 0.00 0.00 76 1009.3
20260906001041 88 90 9.0 16.0 0.00 0.00 0.00 74 1009.3
20260906000314 88 146 9.0 17.0 0.00 0.00 0.00 73 1009.3
20260905235813 89 120 9.0 17.0 0.00 0.00 0.00 72 1009.2
20260905235306 89 123 9.0 18.0 0.00 0.00 0.00 72 1009.2
20260905235009 89 144 9.0 18.0 0.00 0.00 0.00 72 1009.2
20260905234239 89 122 9.0 18.0 0.00 0.00 0.00 72 1009.2
20260905233733 90 149 9.0 18.0 0.00 0.00 0.00 71 1009.2
20260905233228 90 172 10.0 18.0 0.00 0.00 0.00 71 1009.2
20260905232215 91 153 8.0 15.0 0.00 0.00 0.00 71 1008.8
20260905231716 91 162 8.0 14.0 0.00 0.00 0.00 69 1008.8
20260905231216 91 136 8.0 14.0 0.00 0.00 0.00 68 1008.9
20260905230717 92 142 8.0 15.0 0.00 0.00 0.00 69 1008.9
20260905230215 91 185 11.0 17.0 0.00 0.00 0.00 68 1008.9
20260905225717 91 160 11.0 17.0 0.00 0.00 0.00 67 1008.8
20260905225222 92 151 10.0 15.0 0.00 0.00 0.00 66 1008.8
20260905224937 92 136 10.0 16.0 0.00 0.00 0.00 67 1008.8
20260905224216 92 132 9.0 16.0 0.00 0.00 0.00 66 1008.7
20260905223715 92 142 9.0 16.0 0.00 0.00 0.00 65 1008.7
20260905223451 93 116 10.0 16.0 0.00 0.00 0.00 63 1008.7
20260905222711 93 85 9.0 16.0 0.00 0.00 0.00 63 1008.7
20260905222212 93 161 9.0 16.0 0.00 0.00 0.00 63 1008.7
20260905221708 93 155 9.0 15.0 0.00 0.00 0.00 65 1008.7
20260905221208 93 143 9.0 15.0 0.00 0.00 0.00 66 1008.8
20260905220708 93 85 9.0 17.0 0.00 0.00 0.00 65 1008.8
20260905220213 93 172 10.0 17.0 0.00 0.00 0.00 65 1008.8
20260905215937 93 164 10.0 17.0 0.00 0.00 0.00 65 1008.8
20260905215432 94 145 10.0 17.0 0.00 0.00 0.00 64 1008.8
20260905214703 94 153 10.0 17.0 0.00 0.00 0.00 65 1008.8
20260905214432 94 128 9.0 17.0 0.00 0.00 0.00 65 1008.8
20260905213704 95 178 9.0 16.0 0.00 0.00 0.00 63 1008.8
20260905213203 94 95 9.0 15.0 0.00 0.00 0.00 65 1008.8
20260905212705 93 119 8.0 15.0 0.00 0.00 0.00 66 1008.8
20260905212205 93 145 9.0 15.0 0.00 0.00 0.00 67 1008.8
20260905211704 92 145 9.0 15.0 0.00 0.00 0.00 69 1008.8
20260905211149 92 122 10.0 15.0 0.00 0.00 0.00 68 1008.9
20260905210645 92 135 10.0 15.0 0.00 0.00 0.00 68 1008.9
20260905210407 92 168 10.0 15.0 0.00 0.00 0.00 66 1008.9
20260905205647 92 143 8.0 15.0 0.00 0.00 0.00 66 1009.1
20260905205145 93 147 8.0 15.0 0.00 0.00 0.00 65 1009.1
20260905204643 94 169 8.0 16.0 0.00 0.00 0.00 65 1009.1
20260905204406 94 168 9.0 16.0 0.00 0.00 0.00 63 1009.1
20260905203643 95 90 8.0 14.0 0.00 0.00 0.00 63 1009.1
20260905203143 95 184 6.0 13.0 0.00 0.00 0.00 61 1009.1
20260905202644 94 144 6.0 11.0 0.00 0.00 0.00 61 1009.3
20260905202128 93 95 4.0 11.0 0.00 0.00 0.00 61 1009.3
20260905201617 93 61 3.0 5.0 0.00 0.00 0.00 66 1009.3
20260905201104 92 36 3.0 8.0 0.00 0.00 0.00 65 1009.6
20260905200819 92 12 3.0 8.0 0.00 0.00 0.00 68 1009.6
20260905200053 91 19 4.0 8.0 0.00 0.00 0.00 71 1009.6
20260905195554 91 13 5.0 8.0 0.00 0.00 0.00 71 1010.0
20260905195053 92 9 4.0 8.0 0.00 0.00 0.00 69 1010.0
20260905194818 92 20 3.0 7.0 0.00 0.00 0.00 70 1010.0
20260905194053 92 355 2.0 5.0 0.00 0.00 0.00 71 1010.3
20260905193559 92 56 2.0 6.0 0.00 0.00 0.00 72 1010.3
20260905193048 91 34 3.0 7.0 0.00 0.00 0.00 71 1010.3
20260905192538 91 90 3.0 7.0 0.00 0.00 0.00 70 1010.8
20260905192025 91 14 3.0 7.0 0.00 0.00 0.00 71 1010.8
20260905191025 92 28 4.0 10.0 0.00 0.00 0.00 68 1010.8
20260905190520 93 53 4.0 10.0 0.00 0.00 0.00 65 1010.8
20260905190246 93 90 5.0 10.0 0.00 0.00 0.00 65 1010.8
20260905185522 92 161 4.0 15.0 0.00 0.00 0.00 67 1010.8
20260905185022 91 173 4.0 15.0 0.00 0.00 0.00 66 1010.8
20260905184520 91 124 5.0 10.0 0.00 0.00 0.00 67 1010.8
20260905184236 91 133 6.0 10.0 0.00 0.00 0.00 65 1011.1
20260905183528 92 90 4.0 10.0 0.00 0.00 0.00 67 1011.1
20260905183019 93 181 4.0 7.0 0.00 0.00 0.00 67 1011.1
20260905182515 93 210 4.0 8.0 0.00 0.00 0.00 66 1011.4
20260905182015 93 209 4.0 8.0 0.00 0.00 0.00 68 1011.4
20260905181515 92 229 3.0 6.0 0.00 0.00 0.00 66 1011.4
20260905180737 92 218 4.0 7.0 0.00 0.00 0.00 65 1011.5
20260905180011 92 251 4.0 7.0 0.00 0.00 0.00 64 1011.5
20260905175510 92 278 4.0 7.0 0.00 0.00 0.00 63 1011.8
20260905175011 93 255 4.0 7.0 0.00 0.00 0.00 63 1011.8
20260905174509 94 220 5.0 8.0 0.00 0.00 0.00 65 1011.8
20260905174008 93 241 6.0 8.0 0.00 0.00 0.00 65 1012.0
20260905173508 93 229 5.0 8.0 0.00 0.00 0.00 65 1012.0
20260905173008 92 224 4.0 8.0 0.00 0.00 0.00 65 1012.0
20260905172508 92 240 5.0 8.0 0.00 0.00 0.00 66 1012.1
20260905171458 91 228 6.0 8.0 0.00 0.00 0.00 69 1012.1
20260905170948 91 243 6.0 8.0 0.00 0.00 0.00 71 1012.3
20260905170505 90 229 5.0 6.0 0.00 0.00 0.00 76 1012.3
20260905165938 91 242 4.0 8.0 0.00 0.00 0.00 75 1012.4
20260905165440 92 264 4.0 8.0 0.00 0.00 0.00 72 1012.4
20260905164938 92 227 4.0 8.0 0.00 0.00 0.00 72 1012.4
20260905164436 92 238 3.0 8.0 0.00 0.00 0.00 73 1012.4
20260905163948 92 218 5.0 9.0 0.00 0.00 0.00 69 1012.4
20260905163443 92 221 6.0 10.0 0.00 0.00 0.00 71 1012.4
20260905163202 91 225 6.0 10.0 0.00 0.00 0.00 72 1012.4
20260905162432 91 202 7.0 10.0 0.00 0.00 0.00 75 1012.4
20260905161934 90 209 5.0 10.0 0.00 0.00 0.00 76 1012.4
20260905161432 90 200 4.0 8.0 0.00 0.00 0.00 75 1012.4
20260905160916 91 206 4.0 7.0 0.00 0.00 0.00 74 1012.4
20260905160632 91 221 5.0 8.0 0.00 0.00 0.00 73 1012.4
20260905155915 91 206 5.0 8.0 0.00 0.00 0.00 75 1012.4
20260905155414 90 239 5.0 8.0 0.00 0.00 0.00 74 1012.4
20260905154914 89 220 5.0 8.0 0.00 0.00 0.00 76 1012.4
20260905154414 89 218 5.0 6.0 0.00 0.00 0.00 78 1012.4
20260905154142 88 220 3.0 7.0 0.00 0.00 0.00 79 1012.4
20260905153415 87 209 2.0 7.0 0.00 0.00 0.00 78 1012.4
20260905153139 86 250 1.0 2.0 0.00 0.00 0.00 83 1012.4
20260905152414 86 253 0.0 3.0 0.00 0.00 0.00 83 1012.4
20260905152138 86 253 0.0 3.0 0.00 0.00 0.00 83 1012.4
20260905151414 85 253 0.0 2.0 0.00 0.00 0.00 84 1012.4
20260905150911 85 253 0.0 4.0 0.00 0.00 0.00 84 1012.4
20260905150410 85 253 0.0 4.0 0.00 0.00 0.00 84 1012.4
20260905150127 85 253 1.0 4.0 0.00 0.00 0.00 84 1012.4
20260905145410 85 253 2.0 4.0 0.00 0.00 0.00 85 1012.4
20260905144909 85 253 1.0 3.0 0.00 0.00 0.00 85 1012.4
20260905144409 86 253 1.0 3.0 0.00 0.00 0.00 84 1012.4
20260905144128 86 253 2.0 4.0 0.00 0.00 0.00 84 1012.4
20260905143404 86 253 2.0 4.0 0.00 0.00 0.00 84 1012.4
20260905142853 86 267 1.0 4.0 0.00 0.00 0.00 84 1012.2
20260905142343 86 35 1.0 4.0 0.00 0.00 0.00 85 1012.2
20260905141836 86 36 2.0 4.0 0.00 0.00 0.00 85 1012.2
20260905141331 85 71 2.0 4.0 0.00 0.00 0.00 86 1012.1
20260905140825 85 78 2.0 4.0 0.00 0.00 0.00 86 1012.1
20260905140312 84 95 2.0 4.0 0.00 0.00 0.00 87 1012.1
20260905135812 83 107 2.0 5.0 0.00 0.00 0.00 87 1012.0
20260905135311 83 79 2.0 5.0 0.00 0.00 0.00 88 1012.0
20260905134812 82 68 2.0 5.0 0.00 0.00 0.00 88 1012.0
20260905133810 81 47 2.0 5.0 0.00 0.00 0.00 89 1011.9
20260905133310 80 55 1.0 5.0 0.00 0.00 0.00 89 1011.9
20260905132811 80 74 1.0 3.0 0.00 0.00 0.00 90 1011.7
20260905132532 79 72 1.0 3.0 0.00 0.00 0.00 91 1011.7